Find Starlink 36989

NORAD ID: 68277 Int'l Des: 2026-055 Owner: SPXS Country: US Constellation: starlink operational
LEOCIRCULAR

リアルタイム位置

3D地球を読み込み中...

Starlink 36989について

説明を読み込み中...

次回通過

Passes for default location (London). Set your location on the main map for personalized predictions.

高度履歴

Loading altitude history...

軌道要素

1 68277U 26055R 26124.58335648 .00040354 00000-0 12008-2 0 9994
2 68277 53.1600 59.2070 0000598 98.2925 289.9810 15.34353051 5818
Epoch: May 4, 2026 • Age: 9 hours

現在のステータス

高度 465.2 km
速度 7.63 km/s
衛星直下点 -8.52°S, 43.31°E
打ち上げ日 Mar 19, 2026
運用期間 0.1 years
タイプ internet

技術仕様

分類 Payload
質量 575.00 kg
乾燥質量 530.00 kg
総質量 575.00 kg
長さ 0.30 m
直径 4.10 m
スパン 29.00 m
形状 Box + pan
製造者 SPXS
バスタイプ Starlink V2MO
フェーズステータス In Orbit
所有者/国 SPXS/US

Most Searched